Location: Rosenheim
(47.8408°N, 12.2113°E)
Time: 18:06:58
(UTC+02:00)

ISS - Pass Details

Date: 28 March 2017
Orbit: 401 x 409 km, 51.6° (Epoch: 29 April)

Event Time Altitude Azimuth Distance (km) Brightness Sun altitude
Rises 20:44:36 0° 215° (SW) 2,308 0.2 -12.1°
Reaches altitude 10° 20:46:50 10° 203° (SSW) 1,454 -1.0 -12.5°
Maximum altitude 20:49:40 27° 142° (SE) 808 -2.8 -12.9°
Enters shadow 20:50:26 25° 117° (ESE) 873 -2.8 -13.0°
